Du Bois, PA

1:04 AM EDT on April 28, 2017 (GMT -0400)
Du Bois-Jefferson County

Weather History for KDUJ - January, 2012

Change the Weather History Date:

Saturday, January 28, 2012

  Actual Average Record
Temperature  
Mean Temperature 30 °F 24 °F  
Max Temperature 35 °F 31 °F 57 °F (2002)
Min Temperature 25 °F 17 °F -12 °F (1977)
Degree Days  
Heating Degree Days 35 41  
Month to date heating degree days 1041 1161  
Since 1 July heating degree days 2932 3823  
Cooling Degree Days 0 0  
Month to date cooling degree days 0 0  
Year to date cooling degree days 0 0  
Moisture  
Dew Point 26 °F    
Average Humidity 73    
Maximum Humidity 96    
Minimum Humidity 50    
Precipitation  
Precipitation 0.02 in 0.09 in 0.45 in (1968)
Month to date precipitation 2.82 2.82  
Sea Level Pressure  
Sea Level Pressure 29.90 in    
Wind  
Wind Speed 12 mph (SW)    
Max Wind Speed 32 mph    
Max Gust Speed 44 mph    
Visibility 7 miles    
Events Fog , Snow    
T = Trace of Precipitation, MM = Missing Value Source: NWS Daily Summary

Daily Weather History Graph

Daily Weather History Graph

Search for Another Location

Airport or City:

Trip Planner

Search our weather history database for the weather conditions in past years. The results will help you decide how hot, cold, wet, or windy it might be!

Date:

Astronomy

Jan. 28, 2012 Rise Set
Actual Time 7:30 AM EST 5:26 PM EST
Civil Twilight 7:01 AM EST 5:56 PM EST
Nautical Twilight 6:28 AM EST 6:29 PM EST
Astronomical Twilight 5:55 AM EST 7:01 PM EST
Moon 9:48 AM EST 11:17 PM EST
Length of Visible Light 10h 54m
Length of Day
9h 55m
Waxing Crescent, 27% of the Moon is Illuminated
Jan 28
Waxing Crescent
Jan 30
First Quarter
Feb 7
Full
Feb 14
Last Quarter
Feb 21
New

Hourly Weather History & Observations

Time (EST) Temp. Windchill Dew Point Humidity Pressure Visibility Wind Dir Wind Speed Gust Speed Precip Events Conditions
12:56 AM 28.9 °F 21.9 °F 26.1 °F 89% 29.99 in 10.0 mi WSW 6.9 mph - N/A   Overcast
1:56 AM 28.9 °F 22.8 °F 26.1 °F 89% 29.99 in 10.0 mi WSW 5.8 mph - N/A   Overcast
2:56 AM 30.2 °F 25.4 °F 26.6 °F 86% 29.95 in 10.0 mi SW 4.6 mph - N/A   Overcast
3:56 AM 30.2 °F 24.3 °F 26.6 °F 86% 29.93 in 10.0 mi SW 5.8 mph - N/A   Overcast
4:56 AM 30.2 °F 23.4 °F 26.6 °F 86% 29.93 in 10.0 mi SW 6.9 mph - N/A   Overcast
5:56 AM 30.0 °F 24.1 °F 26.1 °F 85% 29.97 in 10.0 mi SW 5.8 mph - N/A   Overcast
6:47 AM 30.2 °F 26.7 °F 26.6 °F 86% 29.91 in 10.0 mi SW 3.5 mph - N/A   Overcast
6:56 AM 30.2 °F - 26.6 °F 86% 29.90 in 10.0 mi Calm Calm - N/A   Overcast
7:56 AM 30.0 °F 23.2 °F 26.1 °F 85% 29.95 in 10.0 mi SSW 6.9 mph - N/A   Overcast
8:18 AM 30.2 °F 23.4 °F 26.6 °F 86% 29.89 in 10.0 mi SSW 6.9 mph - N/A   Overcast
8:56 AM 30.9 °F 24.3 °F 26.1 °F 82% 29.94 in 10.0 mi Variable 6.9 mph - N/A   Overcast
9:56 AM 30.9 °F 22.8 °F 27.0 °F 85% 29.91 in 10.0 mi South 9.2 mph - N/A   Overcast
10:56 AM 33.1 °F 26.9 °F 28.0 °F 82% 29.88 in 10.0 mi South 6.9 mph - N/A   Overcast
11:56 AM 34.0 °F 27.2 °F 28.0 °F 79% 29.85 in 10.0 mi South 8.1 mph - N/A   Overcast
12:56 PM 35.1 °F 25.9 °F 28.9 °F 78% 29.84 in 4.0 mi SW 13.8 mph 18.4 mph 0.00 in Snow Light Snow
1:06 PM 33.8 °F 26.4 °F 30.2 °F 87% 29.78 in 2.5 mi SW 9.2 mph - 0.00 in Snow Light Snow
1:18 PM 33.8 °F 26.4 °F 30.2 °F 87% 29.78 in 1.5 mi SW 9.2 mph - 0.00 in Snow Light Snow
1:28 PM 33.8 °F 28.6 °F 30.2 °F 87% 29.78 in 2.0 mi SW 5.8 mph - 0.00 in Snow Light Snow
1:37 PM 33.8 °F 27.7 °F 30.2 °F 87% 29.78 in 1.5 mi SW 6.9 mph - 0.00 in Snow Light Snow
1:44 PM 33.8 °F 29.6 °F 32.0 °F 93% 29.78 in 0.8 mi SSW 4.6 mph - 0.00 in Snow Light Snow
1:56 PM 33.8 °F 27.0 °F 32.0 °F 93% 29.78 in 0.8 mi SW 8.1 mph - N/A Snow Light Snow
2:15 PM 33.8 °F 24.8 °F 32.0 °F 93% 29.79 in 1.2 mi SW 12.7 mph 19.6 mph 0.00 in Snow Light Snow
2:34 PM 33.8 °F 24.3 °F 32.0 °F 93% 29.79 in 0.5 mi SW 13.8 mph - 0.01 in Fog , Snow Light Snow
2:46 PM 33.8 °F 22.8 °F 32.0 °F 93% 29.79 in 2.0 mi SW 18.4 mph 26.5 mph 0.01 in Snow Light Snow
2:56 PM 33.1 °F 20.3 °F 30.9 °F 92% 29.85 in 1.2 mi WSW 24.2 mph 36.8 mph 0.01 in Snow Light Snow
3:05 PM 33.8 °F 21.6 °F 30.2 °F 87% 29.81 in 3.0 mi WSW 23.0 mph 32.2 mph 0.00 in Snow Light Snow
3:24 PM 33.8 °F 22.8 °F 30.2 °F 87% 29.82 in 6.0 mi West 18.4 mph 31.1 mph 0.00 in Snow Light Snow
3:30 PM 33.8 °F 21.3 °F 30.2 °F 87% 29.82 in 2.5 mi WSW 24.2 mph 33.4 mph 0.00 in Snow Light Snow
3:42 PM 33.8 °F 21.0 °F 28.4 °F 81% 29.83 in 9.0 mi WSW 25.3 mph 39.1 mph 0.00 in   Mostly Cloudy
3:56 PM 33.1 °F 19.1 °F 26.1 °F 75% 29.90 in 8.0 mi West 29.9 mph 41.4 mph 0.00 in   Mostly Cloudy
4:56 PM 32.0 °F 19.8 °F 23.0 °F 69% 29.96 in 10.0 mi WSW 20.7 mph 31.1 mph 0.00 in   Overcast
5:56 PM 30.0 °F 17.5 °F 19.9 °F 66% 30.00 in 10.0 mi WSW 19.6 mph 28.8 mph N/A   Scattered Clouds
6:56 PM 30.0 °F 16.6 °F 17.1 °F 59% 30.03 in 10.0 mi WSW 23.0 mph 31.1 mph N/A   Scattered Clouds
7:56 PM 28.9 °F 16.5 °F 12.9 °F 51% 30.05 in 10.0 mi West 18.4 mph 35.7 mph N/A   Clear
8:56 PM 27.0 °F 12.8 °F 10.0 °F 49% 30.07 in 10.0 mi West 21.9 mph 36.8 mph N/A   Clear
9:56 PM 26.1 °F 14.0 °F 12.0 °F 55% 30.09 in 10.0 mi WSW 15.0 mph - N/A   Clear
10:56 PM 25.0 °F 14.2 °F 12.0 °F 58% 30.09 in 10.0 mi West 11.5 mph 23.0 mph N/A   Clear
11:56 PM 25.0 °F 12.6 °F 12.9 °F 60% 30.10 in 10.0 mi West 15.0 mph - N/A   Clear